Time,TemperatureF,DewpointF,PressureIn,WindDirection,WindDirectionDegrees,WindSpeedMPH,WindSpeedGustMPH,Humidity,HourlyPrecipIn,Conditions,Clouds,dailyrainin,SoftwareType,DateUTC
2013-02-01 00:01:00,6.7,-1.0,30.28,South,174,11.7,12.6,72,0.00,,,0.00,TxWx,2013-02-01 06:01:00,
2013-02-01 00:06:00,6.7,-1.0,30.28,South,185,11.7,12.9,72,0.00,,,0.00,TxWx,2013-02-01 06:06:00,
2013-02-01 00:11:00,6.6,-1.0,30.28,South,175,13.8,14.7,71,0.00,,,0.00,TxWx,2013-02-01 06:11:00,
2013-02-01 00:16:00,6.5,-3.0,30.28,South,183,15.0,20.4,71,0.00,,,0.00,TxWx,2013-02-01 06:16:00,
2013-02-01 00:22:00,6.5,-1.0,30.29,SSE,168,12.0,12.3,72,0.00,,,0.00,TxWx,2013-02-01 06:22:00,
2013-02-01 00:27:00,6.4,-2.0,30.29,South,181,20.4,20.4,73,0.00,,,0.00,TxWx,2013-02-01 06:27:00,
2013-02-01 00:38:00,6.0,-3.0,30.30,South,180,11.4,14.4,71,0.00,,,0.00,TxWx,2013-02-01 06:38:00,
2013-02-01 00:43:00,5.9,-2.0,30.30,South,172,13.8,18.9,72,0.00,,,0.00,TxWx,2013-02-01 06:43:00,
2013-02-01 00:48:00,5.9,-2.0,30.30,South,181,12.3,15.0,72,0.00,,,0.00,TxWx,2013-02-01 06:48:00,
2013-02-01 00:53:00,5.8,-2.0,30.31,South,180,16.8,16.8,72,0.00,,,0.00,TxWx,2013-02-01 06:53:00,
2013-02-01 00:58:00,5.7,-2.0,30.31,South,169,12.9,13.2,71,0.00,,,0.00,TxWx,2013-02-01 06:58:00,
2013-02-01 01:04:00,5.7,-2.0,30.31,South,176,15.0,15.0,72,0.00,,,0.00,TxWx,2013-02-01 07:04:00,
2013-02-01 01:09:00,5.6,-2.0,30.31,South,176,11.7,12.6,71,0.00,,,0.00,TxWx,2013-02-01 07:09:00,
2013-02-01 01:14:00,5.7,-2.0,30.32,South,182,10.5,10.5,72,0.00,,,0.00,TxWx,2013-02-01 07:14:00,
2013-02-01 01:19:00,5.7,-2.0,30.32,South,188,9.9,10.5,74,0.00,,,0.00,TxWx,2013-02-01 07:19:00,
2013-02-01 01:24:00,5.6,-2.0,30.32,South,179,7.8,7.8,73,0.00,,,0.00,TxWx,2013-02-01 07:24:00,
2013-02-01 01:30:00,5.5,-3.0,30.32,South,189,7.8,10.2,72,0.00,,,0.00,TxWx,2013-02-01 07:30:00,
2013-02-01 01:35:00,5.4,-3.0,30.33,South,178,12.3,13.5,73,0.00,,,0.00,TxWx,2013-02-01 07:35:00,
2013-02-01 01:40:00,5.3,-3.0,30.33,SSE,168,10.5,12.6,73,0.00,,,0.00,TxWx,2013-02-01 07:40:00,
2013-02-01 01:45:00,5.4,-3.0,30.33,South,179,8.4,9.6,73,0.00,,,0.00,TxWx,2013-02-01 07:45:00,
2013-02-01 01:50:00,5.3,-3.0,30.34,SSW,200,4.5,6.0,74,0.00,,,0.00,TxWx,2013-02-01 07:50:00,
2013-02-01 01:56:00,5.3,-3.0,30.34,South,171,6.6,7.8,74,0.00,,,0.00,TxWx,2013-02-01 07:56:00,
2013-02-01 02:01:00,5.1,-3.0,30.34,South,183,12.3,12.3,73,0.00,,,0.00,TxWx,2013-02-01 08:01:00,
2013-02-01 02:06:00,5.1,-3.0,30.34,South,178,13.2,13.8,74,0.00,,,0.00,TxWx,2013-02-01 08:06:00,
2013-02-01 02:11:00,5.0,-3.0,30.34,South,171,19.5,19.5,74,0.00,,,0.00,TxWx,2013-02-01 08:11:00,
2013-02-01 02:23:00,5.0,-2.0,30.35,South,178,10.2,10.5,74,0.00,,,0.00,TxWx,2013-02-01 08:23:00,
2013-02-01 02:28:00,4.9,-2.0,30.35,South,179,14.1,15.6,75,0.00,,,0.00,TxWx,2013-02-01 08:28:00,
2013-02-01 02:33:00,4.8,-2.0,30.36,South,179,16.2,16.2,74,0.00,,,0.00,TxWx,2013-02-01 08:33:00,
2013-02-01 02:38:00,4.7,-2.0,30.36,South,182,17.4,18.9,75,0.00,,,0.00,TxWx,2013-02-01 08:38:00,
2013-02-01 02:44:00,4.7,-2.0,30.36,South,171,11.4,12.6,75,0.00,,,0.00,TxWx,2013-02-01 08:44:00,
2013-02-01 02:49:00,4.7,-2.0,30.36,South,178,11.4,17.7,75,0.00,,,0.00,TxWx,2013-02-01 08:49:00,
2013-02-01 02:54:00,4.7,-2.0,30.36,South,174,6.0,6.0,75,0.00,,,0.00,TxWx,2013-02-01 08:54:00,
2013-02-01 02:59:00,4.5,-2.0,30.36,South,169,9.6,9.6,76,0.00,,,0.00,TxWx,2013-02-01 08:59:00,
2013-02-01 03:05:00,4.4,-3.0,30.37,South,170,8.7,8.7,76,0.00,,,0.00,TxWx,2013-02-01 09:05:00,
2013-02-01 03:10:00,4.3,-3.0,30.37,SSE,166,7.2,7.5,76,0.00,,,0.00,TxWx,2013-02-01 09:10:00,
2013-02-01 03:15:00,4.3,-3.0,30.37,SSE,163,8.7,11.7,76,0.00,,,0.00,TxWx,2013-02-01 09:15:00,
2013-02-01 03:20:00,4.2,-3.0,30.37,SSE,162,15.3,15.3,76,0.00,,,0.00,TxWx,2013-02-01 09:20:00,
2013-02-01 03:25:00,4.1,-3.0,30.38,South,183,15.3,15.3,75,0.00,,,0.00,TxWx,2013-02-01 09:25:00,
2013-02-01 03:31:00,4.1,-3.0,30.38,SE,140,7.2,8.4,75,0.00,,,0.00,TxWx,2013-02-01 09:31:00,
2013-02-01 03:36:00,4.1,-3.0,30.38,South,171,13.5,13.5,75,0.00,,,0.00,TxWx,2013-02-01 09:36:00,
2013-02-01 03:41:00,4.1,-3.0,30.38,South,173,9.9,11.4,75,0.00,,,0.00,TxWx,2013-02-01 09:41:00,
2013-02-01 03:46:00,4.1,-3.0,30.39,South,181,11.4,11.4,76,0.00,,,0.00,TxWx,2013-02-01 09:46:00,
2013-02-01 03:52:00,4.0,-3.0,30.39,South,170,8.7,9.0,76,0.00,,,0.00,TxWx,2013-02-01 09:52:00,
2013-02-01 03:57:00,3.9,-3.0,30.39,South,174,8.4,8.4,75,0.00,,,0.00,TxWx,2013-02-01 09:57:00,
2013-02-01 04:02:00,3.8,-3.0,30.39,South,175,10.2,12.6,76,0.00,,,0.00,TxWx,2013-02-01 10:02:00,
2013-02-01 04:07:00,3.8,-3.0,30.39,South,169,13.5,14.4,76,0.00,,,0.00,TxWx,2013-02-01 10:07:00,
2013-02-01 04:13:00,3.7,-3.0,30.39,SSE,164,12.3,12.3,76,0.00,,,0.00,TxWx,2013-02-01 10:13:00,
2013-02-01 04:18:00,3.7,-3.0,30.40,South,174,9.6,10.2,76,0.00,,,0.00,TxWx,2013-02-01 10:18:00,
2013-02-01 04:23:00,3.6,-3.0,30.40,South,171,11.7,11.7,76,0.00,,,0.00,TxWx,2013-02-01 10:23:00,
2013-02-01 04:28:00,3.5,-3.0,30.40,SSE,163,10.5,12.0,76,0.00,,,0.00,TxWx,2013-02-01 10:28:00,
2013-02-01 04:34:00,3.4,-4.0,30.40,SSE,158,15.9,15.9,77,0.00,,,0.00,TxWx,2013-02-01 10:34:00,
2013-02-01 04:39:00,3.4,-4.0,30.41,SSE,168,15.6,15.6,76,0.00,,,0.00,TxWx,2013-02-01 10:39:00,
2013-02-01 04:44:00,3.4,-4.0,30.41,SSE,164,11.7,16.8,76,0.00,,,0.00,TxWx,2013-02-01 10:44:00,
2013-02-01 04:50:00,3.3,-4.0,30.41,South,176,15.6,15.6,75,0.00,,,0.00,TxWx,2013-02-01 10:50:00,
2013-02-01 04:55:00,3.2,-4.0,30.41,SSE,161,6.9,8.7,75,0.00,,,0.00,TxWx,2013-02-01 10:55:00,
2013-02-01 05:00:00,3.3,-4.0,30.42,South,169,6.9,6.9,76,0.00,,,0.00,TxWx,2013-02-01 11:00:00,
2013-02-01 05:05:00,3.1,-4.0,30.41,South,170,8.1,8.1,77,0.00,,,0.00,TxWx,2013-02-01 11:05:00,
2013-02-01 05:10:00,2.9,-4.0,30.41,South,174,15.3,17.7,75,0.00,,,0.00,TxWx,2013-02-01 11:10:00,
2013-02-01 05:16:00,2.8,-4.0,30.42,South,175,17.1,19.5,76,0.00,,,0.00,TxWx,2013-02-01 11:16:00,
2013-02-01 05:21:00,2.7,-4.0,30.41,South,178,9.6,14.4,76,0.00,,,0.00,TxWx,2013-02-01 11:21:00,
2013-02-01 05:31:00,2.7,-4.0,30.42,SSE,168,9.9,10.2,77,0.00,,,0.00,TxWx,2013-02-01 11:31:00,
2013-02-01 05:36:00,2.6,-4.0,30.42,SSE,163,9.0,9.0,77,0.00,,,0.00,TxWx,2013-02-01 11:36:00,
2013-02-01 05:42:00,2.6,-4.0,30.42,SSE,162,10.2,10.2,77,0.00,,,0.00,TxWx,2013-02-01 11:42:00,
2013-02-01 05:47:00,2.5,-5.0,30.42,SSE,163,10.2,10.8,76,0.00,,,0.00,TxWx,2013-02-01 11:47:00,
2013-02-01 05:52:00,2.5,-5.0,30.42,South,169,11.1,11.1,77,0.00,,,0.00,TxWx,2013-02-01 11:52:00,
2013-02-01 05:57:00,2.5,-5.0,30.42,SSE,165,7.8,8.1,77,0.00,,,0.00,TxWx,2013-02-01 11:57:00,
2013-02-01 06:02:00,2.4,-5.0,30.42,SSE,151,8.7,8.7,77,0.00,,,0.00,TxWx,2013-02-01 12:02:00,
2013-02-01 06:07:00,2.3,-5.0,30.43,SSE,167,7.2,7.2,77,0.00,,,0.00,TxWx,2013-02-01 12:07:00,
2013-02-01 06:12:00,2.4,-5.0,30.43,SSE,163,4.8,4.8,77,0.00,,,0.00,TxWx,2013-02-01 12:12:00,
2013-02-01 06:18:00,2.2,-5.0,30.43,South,169,16.8,16.8,76,0.00,,,0.00,TxWx,2013-02-01 12:18:00,
2013-02-01 06:23:00,2.3,-5.0,30.43,SSE,154,7.8,7.8,77,0.00,,,0.00,TxWx,2013-02-01 12:23:00,
2013-02-01 06:28:00,2.2,-5.0,30.43,SSE,162,8.4,8.7,77,0.00,,,0.00,TxWx,2013-02-01 12:28:00,
2013-02-01 06:33:00,2.2,-5.0,30.43,SSE,164,11.7,11.7,77,0.00,,,0.00,TxWx,2013-02-01 12:33:00,
2013-02-01 06:38:00,2.2,-4.0,30.43,SSE,158,4.2,4.2,78,0.00,,,0.00,TxWx,2013-02-01 12:38:00,
2013-02-01 06:43:00,2.1,-4.0,30.43,South,173,7.2,7.2,78,0.00,,,0.00,TxWx,2013-02-01 12:43:00,
2013-02-01 06:49:00,2.2,-4.0,30.43,South,171,4.8,5.1,78,0.00,,,0.00,TxWx,2013-02-01 12:49:00,
2013-02-01 06:54:00,2.1,-4.0,30.44,SSE,160,7.2,8.1,78,0.00,,,0.00,TxWx,2013-02-01 12:54:00,
2013-02-01 06:59:00,2.0,-4.0,30.44,SSE,157,6.6,9.0,78,0.00,,,0.00,TxWx,2013-02-01 12:59:00,
2013-02-01 07:04:00,2.1,-4.0,30.44,SSE,153,6.0,6.3,78,0.00,,,0.00,TxWx,2013-02-01 13:04:00,
2013-02-01 07:10:00,2.0,-4.0,30.44,South,170,4.8,5.7,78,0.00,,,0.00,TxWx,2013-02-01 13:10:00,
2013-02-01 07:15:00,1.9,-5.0,30.44,SSE,148,7.2,8.7,77,0.00,,,0.00,TxWx,2013-02-01 13:15:00,
2013-02-01 07:20:00,2.0,-5.0,30.45,SSE,161,7.8,7.8,77,0.00,,,0.00,TxWx,2013-02-01 13:20:00,
2013-02-01 07:25:00,2.0,-4.0,30.45,SSE,156,7.8,9.6,78,0.00,,,0.00,TxWx,2013-02-01 13:25:00,
2013-02-01 07:30:00,2.0,-5.0,30.45,SSE,158,8.7,9.6,77,0.00,,,0.00,TxWx,2013-02-01 13:30:00,
2013-02-01 07:35:00,2.2,-5.0,30.45,SSE,156,5.7,5.7,77,0.00,,,0.00,TxWx,2013-02-01 13:35:00,
2013-02-01 07:41:00,2.4,-5.0,30.46,SE,138,5.7,5.7,77,0.00,,,0.00,TxWx,2013-02-01 13:41:00,
2013-02-01 07:46:00,2.6,-4.0,30.45,SSE,163,4.2,4.2,77,0.00,,,0.00,TxWx,2013-02-01 13:46:00,
2013-02-01 07:51:00,2.8,-4.0,30.46,SSE,149,4.5,4.5,77,0.00,,,0.00,TxWx,2013-02-01 13:51:00,
2013-02-01 07:56:00,2.7,-4.0,30.46,SE,132,8.1,8.1,77,0.00,,,0.00,TxWx,2013-02-01 13:56:00,
2013-02-01 08:01:00,2.8,-4.0,30.46,SE,132,9.9,9.9,76,0.00,,,0.00,TxWx,2013-02-01 14:01:00,
2013-02-01 08:06:00,3.1,-4.0,30.46,SE,144,5.1,5.1,76,0.00,,,0.00,TxWx,2013-02-01 14:06:00,
2013-02-01 08:11:00,3.0,-4.0,30.47,South,170,6.9,8.1,75,0.00,,,0.00,TxWx,2013-02-01 14:11:00,
2013-02-01 08:17:00,2.9,-4.0,30.47,SSE,152,9.0,11.1,75,0.00,,,0.00,TxWx,2013-02-01 14:17:00,
2013-02-01 08:22:00,3.2,-4.0,30.47,South,175,6.3,8.4,75,0.00,,,0.00,TxWx,2013-02-01 14:22:00,
2013-02-01 08:27:00,3.4,-4.0,30.48,SSE,150,9.9,9.9,75,0.00,,,0.00,TxWx,2013-02-01 14:27:00,
2013-02-01 08:32:00,3.4,-4.0,30.47,SSE,156,6.0,6.0,74,0.00,,,0.00,TxWx,2013-02-01 14:32:00,
2013-02-01 08:38:00,3.6,-3.0,30.47,South,173,3.9,3.9,74,0.00,,,0.00,TxWx,2013-02-01 14:38:00,
2013-02-01 08:43:00,3.8,-4.0,30.48,SE,141,8.4,8.4,74,0.00,,,0.00,TxWx,2013-02-01 14:43:00,
2013-02-01 08:48:00,3.7,-4.0,30.48,SE,134,5.1,6.3,73,0.00,,,0.00,TxWx,2013-02-01 14:48:00,
2013-02-01 08:53:00,4.1,-4.0,30.48,SSE,156,6.3,6.6,74,0.00,,,0.00,TxWx,2013-02-01 14:53:00,
2013-02-01 08:58:00,4.1,-4.0,30.48,SSE,150,8.1,10.2,72,0.00,,,0.00,TxWx,2013-02-01 14:58:00,
2013-02-01 09:03:00,4.3,-4.0,30.48,SSE,162,4.8,4.8,73,0.00,,,0.00,TxWx,2013-02-01 15:03:00,
2013-02-01 09:09:00,4.5,-3.0,30.48,SSE,150,9.6,10.2,72,0.00,,,0.00,TxWx,2013-02-01 15:09:00,
2013-02-01 09:14:00,4.5,-3.0,30.48,SSE,155,6.9,8.1,72,0.00,,,0.00,TxWx,2013-02-01 15:14:00,
2013-02-01 09:19:00,4.7,-3.0,30.48,SE,145,5.7,5.7,73,0.00,,,0.00,TxWx,2013-02-01 15:19:00,
2013-02-01 09:24:00,4.9,-3.0,30.48,SSE,150,9.3,9.3,73,0.00,,,0.00,TxWx,2013-02-01 15:24:00,
2013-02-01 09:30:00,4.9,-3.0,30.48,SE,129,7.5,8.1,73,0.00,,,0.00,TxWx,2013-02-01 15:30:00,
2013-02-01 09:35:00,5.2,-3.0,30.48,SSE,158,3.3,3.6,72,0.00,,,0.00,TxWx,2013-02-01 15:35:00,
2013-02-01 09:40:00,5.4,-3.0,30.48,SE,131,9.0,9.0,73,0.00,,,0.00,TxWx,2013-02-01 15:40:00,
2013-02-01 09:45:00,5.2,-3.0,30.49,SE,135,8.7,8.7,71,0.00,,,0.00,TxWx,2013-02-01 15:45:00,
2013-02-01 09:51:00,5.7,-2.0,30.49,SE,125,7.8,7.8,72,0.00,,,0.00,TxWx,2013-02-01 15:51:00,
2013-02-01 09:56:00,5.9,-2.0,30.49,SSE,149,9.0,10.5,71,0.00,,,0.00,TxWx,2013-02-01 15:56:00,
2013-02-01 10:01:00,5.9,-3.0,30.49,SE,124,5.4,5.7,70,0.00,,,0.00,TxWx,2013-02-01 16:01:00,
2013-02-01 10:06:00,6.2,-3.0,30.50,SSE,157,3.6,3.6,70,0.00,,,0.00,TxWx,2013-02-01 16:06:00,
2013-02-01 10:11:00,6.7,-2.0,30.50,SE,144,7.2,8.1,70,0.00,,,0.00,TxWx,2013-02-01 16:11:00,
2013-02-01 10:16:00,6.2,-3.0,30.50,SSE,168,10.2,10.2,69,0.00,,,0.00,TxWx,2013-02-01 16:16:00,
2013-02-01 10:21:00,6.3,-3.0,30.50,SE,144,9.3,11.7,70,0.00,,,0.00,TxWx,2013-02-01 16:21:00,
2013-02-01 10:26:00,6.3,-3.0,30.50,SSE,158,10.5,10.5,70,0.00,,,0.00,TxWx,2013-02-01 16:26:00,
2013-02-01 10:32:00,6.3,-3.0,30.50,SSE,152,4.2,5.4,70,0.00,,,0.00,TxWx,2013-02-01 16:32:00,
2013-02-01 10:37:00,6.2,-3.0,30.50,SSE,153,5.7,5.7,70,0.00,,,0.00,TxWx,2013-02-01 16:37:00,
2013-02-01 10:42:00,7.6,0.0,30.50,SSE,163,4.2,4.8,71,0.00,,,0.00,TxWx,2013-02-01 16:42:00,
2013-02-01 10:47:00,7.1,-2.0,30.50,SSE,150,11.1,11.7,68,0.00,,,0.00,TxWx,2013-02-01 16:47:00,
2013-02-01 10:52:00,7.6,-1.0,30.50,SSE,158,7.5,7.5,70,0.00,,,0.00,TxWx,2013-02-01 16:52:00,
2013-02-01 10:57:00,7.4,-2.0,30.50,SSE,165,6.0,6.6,70,0.00,,,0.00,TxWx,2013-02-01 16:57:00,
2013-02-01 11:02:00,7.0,-2.0,30.50,SSE,155,18.3,18.3,69,0.00,,,0.00,TxWx,2013-02-01 17:02:00,
2013-02-01 11:08:00,8.0,-1.0,30.50,SE,142,10.2,10.5,70,0.00,,,0.00,TxWx,2013-02-01 17:08:00,
2013-02-01 11:13:00,7.8,-1.0,30.50,SE,139,9.3,12.6,69,0.00,,,0.00,TxWx,2013-02-01 17:13:00,
2013-02-01 11:18:00,7.4,-2.0,30.50,SSE,149,13.2,15.6,69,0.00,,,0.00,TxWx,2013-02-01 17:18:00,
2013-02-01 11:23:00,8.4,-1.0,30.50,SE,134,6.6,6.6,69,0.00,,,0.00,TxWx,2013-02-01 17:23:00,
2013-02-01 11:28:00,7.6,-2.0,30.50,SE,141,10.2,10.2,68,0.00,,,0.00,TxWx,2013-02-01 17:28:00,
2013-02-01 11:34:00,9.3,0.0,30.50,ESE,117,5.1,5.4,70,0.00,,,0.00,TxWx,2013-02-01 17:34:00,
2013-02-01 11:39:00,8.9,0.0,30.49,SSE,155,7.5,7.5,69,0.00,,,0.00,TxWx,2013-02-01 17:39:00,
2013-02-01 11:44:00,8.2,-1.0,30.49,SE,139,8.1,8.4,68,0.00,,,0.00,TxWx,2013-02-01 17:44:00,
2013-02-01 11:49:00,9.1,0.0,30.49,SSE,160,4.8,6.6,69,0.00,,,0.00,TxWx,2013-02-01 17:49:00,
2013-02-01 11:55:00,8.5,-1.0,30.49,SE,125,5.7,7.5,68,0.00,,,0.00,TxWx,2013-02-01 17:55:00,
2013-02-01 12:00:00,9.5,0.0,30.49,SE,141,12.3,12.9,69,0.00,,,0.00,TxWx,2013-02-01 18:00:00,
2013-02-01 12:05:00,9.2,-1.0,30.49,SSE,151,13.2,13.5,67,0.00,,,0.00,TxWx,2013-02-01 18:05:00,
2013-02-01 12:10:00,9.4,-1.0,30.49,SE,135,7.5,7.8,68,0.00,,,0.00,TxWx,2013-02-01 18:10:00,
2013-02-01 12:15:00,9.3,-1.0,30.48,SSE,161,13.5,14.1,67,0.00,,,0.00,TxWx,2013-02-01 18:15:00,
2013-02-01 12:20:00,9.3,-1.0,30.48,South,172,5.7,6.3,67,0.00,,,0.00,TxWx,2013-02-01 18:20:00,
2013-02-01 12:26:00,9.8,0.0,30.47,South,170,8.1,8.7,67,0.00,,,0.00,TxWx,2013-02-01 18:26:00,
2013-02-01 12:31:00,10.5,1.0,30.47,South,179,4.5,5.7,68,0.00,,,0.00,TxWx,2013-02-01 18:31:00,
2013-02-01 12:36:00,10.5,0.0,30.47,SSE,165,8.7,8.7,66,0.00,,,0.00,TxWx,2013-02-01 18:36:00,
2013-02-01 12:41:00,10.8,1.0,30.47,South,171,7.8,8.4,66,0.00,,,0.00,TxWx,2013-02-01 18:41:00,
2013-02-01 12:46:00,10.7,1.0,30.47,SSE,162,5.1,7.2,65,0.00,,,0.00,TxWx,2013-02-01 18:46:00,
2013-02-01 12:51:00,11.0,0.0,30.47,SE,130,8.1,8.1,65,0.00,,,0.00,TxWx,2013-02-01 18:51:00,
2013-02-01 12:56:00,11.2,0.0,30.47,South,178,11.1,12.3,64,0.00,,,0.00,TxWx,2013-02-01 18:56:00,
2013-02-01 13:02:00,11.2,0.0,30.47,SSE,165,5.7,6.9,64,0.00,,,0.00,TxWx,2013-02-01 19:02:00,
2013-02-01 13:07:00,11.2,0.0,30.47,SSE,157,3.6,3.6,64,0.00,,,0.00,TxWx,2013-02-01 19:07:00,
2013-02-01 13:12:00,11.7,1.0,30.46,South,174,5.7,5.7,64,0.00,,,0.00,TxWx,2013-02-01 19:12:00,
2013-02-01 13:17:00,11.6,1.0,30.46,SSE,160,12.6,12.6,64,0.00,,,0.00,TxWx,2013-02-01 19:17:00,
2013-02-01 13:22:00,11.3,0.0,30.46,SSE,163,7.2,7.2,63,0.00,,,0.00,TxWx,2013-02-01 19:22:00,
2013-02-01 13:27:00,12.3,1.0,30.46,SE,132,6.0,6.9,64,0.00,,,0.00,TxWx,2013-02-01 19:27:00,
2013-02-01 13:32:00,12.6,2.0,30.46,SE,143,4.2,4.8,64,0.00,,,0.00,TxWx,2013-02-01 19:32:00,
2013-02-01 13:37:00,12.7,2.0,30.46,SSE,163,19.8,19.8,64,0.00,,,0.00,TxWx,2013-02-01 19:37:00,
2013-02-01 13:43:00,13.0,2.0,30.46,South,169,10.5,12.9,63,0.00,,,0.00,TxWx,2013-02-01 19:43:00,
2013-02-01 13:48:00,12.3,0.0,30.45,SSE,149,11.7,11.7,61,0.00,,,0.00,TxWx,2013-02-01 19:48:00,
2013-02-01 13:53:00,12.6,1.0,30.45,SSE,156,7.8,7.8,62,0.00,,,0.00,TxWx,2013-02-01 19:53:00,
2013-02-01 13:58:00,12.9,1.0,30.45,South,170,9.0,10.8,61,0.00,,,0.00,TxWx,2013-02-01 19:58:00,
2013-02-01 14:03:00,12.9,2.0,30.45,SSE,153,12.3,12.3,63,0.00,,,0.00,TxWx,2013-02-01 20:03:00,
2013-02-01 14:08:00,12.6,1.0,30.45,SSE,164,11.1,11.1,62,0.00,,,0.00,TxWx,2013-02-01 20:08:00,
2013-02-01 14:13:00,13.6,3.0,30.45,SE,132,10.8,11.7,63,0.00,,,0.00,TxWx,2013-02-01 20:13:00,
2013-02-01 14:18:00,14.0,3.0,30.44,ESE,122,6.6,6.6,63,0.00,,,0.00,TxWx,2013-02-01 20:18:00,
2013-02-01 14:24:00,13.7,2.0,30.44,SE,145,3.6,3.9,61,0.00,,,0.00,TxWx,2013-02-01 20:24:00,
2013-02-01 14:29:00,14.0,2.0,30.44,South,169,7.5,7.5,61,0.00,,,0.00,TxWx,2013-02-01 20:29:00,
2013-02-01 14:34:00,13.6,2.0,30.44,SSE,161,7.8,7.8,60,0.00,,,0.00,TxWx,2013-02-01 20:34:00,
2013-02-01 14:39:00,13.9,2.0,30.44,SE,144,9.3,9.3,61,0.00,,,0.00,TxWx,2013-02-01 20:39:00,
2013-02-01 14:44:00,13.4,1.0,30.44,SE,142,10.8,12.3,62,0.00,,,0.00,TxWx,2013-02-01 20:44:00,
2013-02-01 14:50:00,14.2,3.0,30.44,SE,138,9.0,9.0,63,0.00,,,0.00,TxWx,2013-02-01 20:50:00,
2013-02-01 14:55:00,13.9,2.0,30.43,South,176,6.3,6.3,61,0.00,,,0.00,TxWx,2013-02-01 20:55:00,
2013-02-01 15:00:00,13.9,2.0,30.44,SE,146,6.9,6.9,61,0.00,,,0.00,TxWx,2013-02-01 21:00:00,
2013-02-01 15:05:00,14.8,3.0,30.44,SSE,161,6.0,6.0,62,0.00,,,0.00,TxWx,2013-02-01 21:05:00,
2013-02-01 15:10:00,14.6,3.0,30.44,SE,129,9.6,10.2,62,0.00,,,0.00,TxWx,2013-02-01 21:10:00,
2013-02-01 15:15:00,13.6,2.0,30.44,SE,130,7.8,7.8,62,0.00,,,0.00,TxWx,2013-02-01 21:15:00,
2013-02-01 15:20:00,13.9,3.0,30.44,SE,134,8.7,9.0,63,0.00,,,0.00,TxWx,2013-02-01 21:20:00,
2013-02-01 15:25:00,13.8,2.0,30.43,SSE,154,7.2,10.2,62,0.00,,,0.00,TxWx,2013-02-01 21:25:00,
2013-02-01 15:31:00,13.3,2.0,30.43,SE,134,12.0,12.0,63,0.00,,,0.00,TxWx,2013-02-01 21:31:00,
2013-02-01 15:36:00,14.0,3.0,30.43,SE,140,7.8,7.8,64,0.00,,,0.00,TxWx,2013-02-01 21:36:00,
2013-02-01 15:41:00,14.0,3.0,30.43,SE,140,8.4,10.5,63,0.00,,,0.00,TxWx,2013-02-01 21:41:00,
2013-02-01 15:47:00,14.5,4.0,30.43,SE,128,10.8,11.7,63,0.00,,,0.00,TxWx,2013-02-01 21:47:00,
2013-02-01 15:52:00,14.0,3.0,30.43,SE,146,7.2,7.2,63,0.00,,,0.00,TxWx,2013-02-01 21:52:00,
2013-02-01 15:57:00,13.7,3.0,30.43,SE,144,12.6,12.6,63,0.00,,,0.00,TxWx,2013-02-01 21:57:00,
2013-02-01 16:02:00,13.7,3.0,30.43,SE,137,11.7,11.7,63,0.00,,,0.00,TxWx,2013-02-01 22:02:00,
2013-02-01 16:07:00,13.9,3.0,30.43,SE,146,11.7,13.8,64,0.00,,,0.00,TxWx,2013-02-01 22:07:00,
2013-02-01 16:12:00,13.8,3.0,30.43,SE,146,14.7,18.0,63,0.00,,,0.00,TxWx,2013-02-01 22:12:00,
2013-02-01 16:17:00,14.0,3.0,30.43,SSE,162,6.9,6.9,64,0.00,,,0.00,TxWx,2013-02-01 22:17:00,
2013-02-01 16:22:00,13.9,3.0,30.43,SE,145,9.6,9.9,65,0.00,,,0.00,TxWx,2013-02-01 22:22:00,
2013-02-01 16:27:00,14.0,3.0,30.43,SE,129,9.0,9.9,65,0.00,,,0.00,TxWx,2013-02-01 22:27:00,
2013-02-01 16:33:00,14.0,3.0,30.43,SSE,152,5.1,5.1,65,0.00,,,0.00,TxWx,2013-02-01 22:33:00,
2013-02-01 16:38:00,13.9,3.0,30.43,SSE,148,10.5,12.3,65,0.00,,,0.00,TxWx,2013-02-01 22:38:00,
2013-02-01 16:43:00,14.2,4.0,30.43,SE,129,4.8,4.8,66,0.00,,,0.00,TxWx,2013-02-01 22:43:00,
2013-02-01 16:48:00,14.0,4.0,30.43,SE,143,9.0,11.1,66,0.00,,,0.00,TxWx,2013-02-01 22:48:00,
2013-02-01 16:54:00,13.9,4.0,30.42,SE,131,6.6,6.9,66,0.00,,,0.00,TxWx,2013-02-01 22:54:00,
2013-02-01 16:59:00,13.9,4.0,30.42,SE,133,10.5,11.7,66,0.00,,,0.00,TxWx,2013-02-01 22:59:00,
2013-02-01 17:04:00,13.9,4.0,30.42,SE,130,6.3,6.6,67,0.00,,,0.00,TxWx,2013-02-01 23:04:00,
2013-02-01 17:09:00,13.8,4.0,30.42,SSE,149,15.0,15.0,67,0.00,,,0.00,TxWx,2013-02-01 23:09:00,
2013-02-01 17:15:00,13.8,4.0,30.42,SE,136,7.2,7.5,67,0.00,,,0.00,TxWx,2013-02-01 23:15:00,
2013-02-01 17:20:00,13.9,4.0,30.42,SE,143,5.7,5.7,68,0.00,,,0.00,TxWx,2013-02-01 23:20:00,
2013-02-01 17:25:00,13.9,4.0,30.42,SE,139,5.7,6.0,68,0.00,,,0.00,TxWx,2013-02-01 23:25:00,
2013-02-01 17:31:00,13.9,4.0,30.42,SSE,159,4.2,5.1,68,0.00,,,0.00,TxWx,2013-02-01 23:31:00,
2013-02-01 17:36:00,13.8,4.0,30.42,SE,129,5.1,5.7,68,0.00,,,0.00,TxWx,2013-02-01 23:36:00,
2013-02-01 17:41:00,13.8,5.0,30.42,SSE,151,3.9,3.9,69,0.00,,,0.00,TxWx,2013-02-01 23:41:00,
2013-02-01 17:46:00,13.8,5.0,30.42,SE,129,8.4,8.4,69,0.00,,,0.00,TxWx,2013-02-01 23:46:00,
2013-02-01 17:51:00,13.8,5.0,30.42,SE,140,6.6,6.6,69,0.00,,,0.00,TxWx,2013-02-01 23:51:00,
2013-02-01 17:56:00,13.8,5.0,30.42,SE,142,3.3,3.6,69,0.00,,,0.00,TxWx,2013-02-01 23:56:00,
2013-02-01 18:01:00,13.7,5.0,30.42,SSE,147,6.0,6.0,69,0.00,,,0.00,TxWx,2013-02-02 00:01:00,
2013-02-01 18:07:00,13.6,5.0,30.42,SE,146,3.6,4.2,69,0.00,,,0.00,TxWx,2013-02-02 00:07:00,
2013-02-01 18:12:00,13.7,5.0,30.42,SE,135,2.1,2.7,70,0.00,,,0.00,TxWx,2013-02-02 00:12:00,
2013-02-01 18:17:00,13.6,5.0,30.42,SSE,164,3.9,4.2,70,0.00,,,0.00,TxWx,2013-02-02 00:17:00,
2013-02-01 18:22:00,13.5,5.0,30.42,SSE,151,4.5,4.5,70,0.00,,,0.00,TxWx,2013-02-02 00:22:00,
2013-02-01 18:27:00,13.5,4.0,30.42,SE,133,4.2,4.2,70,0.00,,,0.00,TxWx,2013-02-02 00:27:00,
2013-02-01 18:32:00,13.4,4.0,30.42,SSE,153,3.3,3.3,71,0.00,,,0.00,TxWx,2013-02-02 00:32:00,
2013-02-01 18:37:00,13.4,4.0,30.42,SSE,165,4.5,4.5,71,0.00,,,0.00,TxWx,2013-02-02 00:37:00,
2013-02-01 18:43:00,13.5,4.0,30.41,SE,146,5.4,5.4,71,0.00,,,0.00,TxWx,2013-02-02 00:43:00,
2013-02-01 18:48:00,13.4,5.0,30.41,SE,137,6.0,6.0,72,0.00,,,0.00,TxWx,2013-02-02 00:48:00,
2013-02-01 18:53:00,13.5,5.0,30.41,SE,130,3.9,4.5,72,0.00,,,0.00,TxWx,2013-02-02 00:53:00,
2013-02-01 18:58:00,13.5,5.0,30.41,SE,138,8.7,8.7,72,0.00,,,0.00,TxWx,2013-02-02 00:58:00,
2013-02-01 19:03:00,13.5,5.0,30.41,SE,137,3.3,3.9,72,0.00,,,0.00,TxWx,2013-02-02 01:03:00,
2013-02-01 19:08:00,13.6,6.0,30.41,SSE,150,4.5,4.5,72,0.00,,,0.00,TxWx,2013-02-02 01:08:00,
2013-02-01 19:14:00,13.7,6.0,30.40,SE,130,3.6,3.9,72,0.00,,,0.00,TxWx,2013-02-02 01:14:00,
2013-02-01 19:19:00,13.8,6.0,30.41,SE,138,2.7,3.3,72,0.00,,,0.00,TxWx,2013-02-02 01:19:00,
2013-02-01 19:24:00,14.0,6.0,30.40,SE,132,5.1,6.3,73,0.00,,,0.00,TxWx,2013-02-02 01:24:00,
2013-02-01 19:29:00,14.2,6.0,30.40,SE,142,6.0,7.5,73,0.00,,,0.00,TxWx,2013-02-02 01:29:00,
2013-02-01 19:34:00,14.3,6.0,30.40,SSE,148,6.9,6.9,73,0.00,,,0.00,TxWx,2013-02-02 01:34:00,
2013-02-01 19:40:00,14.4,6.0,30.40,ESE,123,3.9,3.9,73,0.00,,,0.00,TxWx,2013-02-02 01:40:00,
2013-02-01 19:45:00,14.4,6.0,30.40,SE,130,5.7,5.7,72,0.00,,,0.00,TxWx,2013-02-02 01:45:00,
2013-02-01 19:50:00,14.5,7.0,30.40,SE,134,9.6,9.6,72,0.00,,,0.00,TxWx,2013-02-02 01:50:00,
2013-02-01 19:55:00,14.6,6.0,30.39,SE,132,7.2,7.2,72,0.00,,,0.00,TxWx,2013-02-02 01:55:00,
2013-02-01 20:00:00,14.6,7.0,30.39,SE,134,9.0,9.6,72,0.00,,,0.00,TxWx,2013-02-02 02:00:00,
2013-02-01 20:06:00,14.7,7.0,30.39,ESE,116,6.3,6.3,72,0.00,,,0.00,TxWx,2013-02-02 02:06:00,
2013-02-01 20:11:00,14.8,7.0,30.39,SE,137,5.4,5.7,73,0.00,,,0.00,TxWx,2013-02-02 02:11:00,
2013-02-01 20:16:00,14.9,7.0,30.39,SE,145,3.3,3.3,73,0.00,,,0.00,TxWx,2013-02-02 02:16:00,
2013-02-01 20:21:00,14.9,7.0,30.38,SE,126,8.7,9.3,73,0.00,,,0.00,TxWx,2013-02-02 02:21:00,
2013-02-01 20:26:00,15.1,7.0,30.38,ESE,118,7.2,7.2,72,0.00,,,0.00,TxWx,2013-02-02 02:26:00,
2013-02-01 20:31:00,15.2,7.0,30.38,SE,127,5.1,5.4,73,0.00,,,0.00,TxWx,2013-02-02 02:31:00,
2013-02-01 20:36:00,15.4,6.0,30.38,ESE,111,6.6,6.6,72,0.00,,,0.00,TxWx,2013-02-02 02:36:00,
2013-02-01 20:41:00,15.6,7.0,30.38,SE,128,7.8,7.8,72,0.00,,,0.00,TxWx,2013-02-02 02:41:00,
2013-02-01 20:46:00,15.6,7.0,30.37,SE,133,9.0,10.5,72,0.00,,,0.00,TxWx,2013-02-02 02:46:00,
2013-02-01 20:52:00,15.8,7.0,30.37,SE,135,8.1,8.4,71,0.00,,,0.00,TxWx,2013-02-02 02:52:00,
2013-02-01 20:57:00,15.8,7.0,30.37,ESE,117,8.7,9.6,71,0.00,,,0.00,TxWx,2013-02-02 02:57:00,
2013-02-01 21:04:00,16.0,7.0,30.37,SE,130,10.5,11.4,70,0.00,,,0.00,TxWx,2013-02-02 03:04:00,
2013-02-01 21:09:00,16.0,7.0,30.36,SE,131,5.4,6.3,70,0.00,,,0.00,TxWx,2013-02-02 03:09:00,
2013-02-01 21:14:00,16.1,7.0,30.37,SE,127,5.7,5.7,69,0.00,,,0.00,TxWx,2013-02-02 03:14:00,
2013-02-01 21:19:00,16.2,7.0,30.36,SE,127,9.3,9.3,69,0.00,,,0.00,TxWx,2013-02-02 03:19:00,
2013-02-01 21:24:00,16.3,7.0,30.36,SSE,147,6.0,6.0,69,0.00,,,0.00,TxWx,2013-02-02 03:24:00,
2013-02-01 21:29:00,16.3,7.0,30.36,SE,137,8.7,9.3,69,0.00,,,0.00,TxWx,2013-02-02 03:29:00,
2013-02-01 21:35:00,16.3,7.0,30.37,SE,135,8.7,10.5,69,0.00,,,0.00,TxWx,2013-02-02 03:35:00,
2013-02-01 21:40:00,16.4,7.0,30.37,SE,143,5.7,5.7,70,0.00,,,0.00,TxWx,2013-02-02 03:40:00,
2013-02-01 21:45:00,16.4,7.0,30.37,SE,132,8.1,8.1,70,0.00,,,0.00,TxWx,2013-02-02 03:45:00,
2013-02-01 21:50:00,16.5,7.0,30.37,SE,125,7.5,7.5,70,0.00,,,0.00,TxWx,2013-02-02 03:50:00,
2013-02-01 21:55:00,16.6,8.0,30.36,SE,129,3.6,3.9,70,0.00,,,0.00,TxWx,2013-02-02 03:55:00,
2013-02-01 22:00:00,16.6,8.0,30.36,SE,141,6.6,6.6,70,0.00,,,0.00,TxWx,2013-02-02 04:00:00,
2013-02-01 22:06:00,16.7,8.0,30.37,SE,138,5.7,6.0,71,0.00,,,0.00,TxWx,2013-02-02 04:06:00,
2013-02-01 22:11:00,16.7,8.0,30.36,SE,125,4.5,4.5,71,0.00,,,0.00,TxWx,2013-02-02 04:11:00,
2013-02-01 22:16:00,16.7,8.0,30.36,SE,134,9.3,9.3,71,0.00,,,0.00,TxWx,2013-02-02 04:16:00,
2013-02-01 22:21:00,16.8,9.0,30.36,SE,134,4.2,4.5,72,0.00,,,0.00,TxWx,2013-02-02 04:21:00,
2013-02-01 22:26:00,16.7,9.0,30.36,SE,134,5.7,5.7,73,0.00,,,0.00,TxWx,2013-02-02 04:26:00,
2013-02-01 22:31:00,16.8,9.0,30.36,SE,130,6.6,6.6,73,0.00,,,0.00,TxWx,2013-02-02 04:31:00,
2013-02-01 22:36:00,16.7,9.0,30.36,SE,136,4.2,4.5,74,0.00,,,0.00,TxWx,2013-02-02 04:36:00,
2013-02-01 22:41:00,16.7,9.0,30.36,SE,124,5.4,5.4,75,0.00,,,0.00,TxWx,2013-02-02 04:41:00,
2013-02-01 22:46:00,16.8,10.0,30.35,ESE,118,2.4,2.4,76,0.00,,,0.00,TxWx,2013-02-02 04:46:00,
2013-02-01 22:52:00,16.7,10.0,30.35,ESE,121,4.5,4.5,76,0.00,,,0.00,TxWx,2013-02-02 04:52:00,
2013-02-01 22:57:00,16.6,10.0,30.35,SE,126,7.2,7.2,77,0.00,,,0.00,TxWx,2013-02-02 04:57:00,
2013-02-01 23:00:00,16.7,10.0,30.35,ESE,118,3.3,3.3,78,0.00,,,0.00,TxWx,2013-02-02 05:00:00,
2013-02-01 23:01:00,16.7,10.0,30.35,SE,131,3.6,4.2,78,0.00,,,0.00,TxWx,2013-02-02 05:01:00,
2013-02-01 23:06:00,16.8,10.0,30.35,SE,128,3.3,3.9,78,0.00,,,0.00,TxWx,2013-02-02 05:06:00,
2013-02-01 23:11:00,16.8,10.0,30.35,SE,124,2.7,2.7,79,0.00,,,0.00,TxWx,2013-02-02 05:11:00,
2013-02-01 23:16:00,16.9,11.0,30.35,SE,136,2.7,3.0,80,0.00,,,0.00,TxWx,2013-02-02 05:16:00,
2013-02-01 23:22:00,16.8,11.0,30.35,SE,134,4.5,5.1,80,0.00,,,0.00,TxWx,2013-02-02 05:22:00,
2013-02-01 23:27:00,16.8,11.0,30.35,ESE,118,4.2,4.2,81,0.00,,,0.00,TxWx,2013-02-02 05:27:00,
2013-02-01 23:32:00,16.8,11.0,30.35,ESE,123,4.5,4.5,81,0.00,,,0.00,TxWx,2013-02-02 05:32:00,
2013-02-01 23:37:00,16.9,11.0,30.35,SE,124,6.9,6.9,82,0.00,,,0.00,TxWx,2013-02-02 05:37:00,
2013-02-01 23:42:00,16.9,12.0,30.34,SE,134,3.9,4.2,83,0.00,,,0.00,TxWx,2013-02-02 05:42:00,
2013-02-01 23:47:00,16.9,12.0,30.34,SE,129,3.3,3.6,83,0.00,,,0.00,TxWx,2013-02-02 05:47:00,
2013-02-01 23:53:00,16.9,12.0,30.34,ESE,120,3.9,4.2,84,0.00,,,0.00,TxWx,2013-02-02 05:53:00,
2013-02-01 23:58:00,17.0,12.0,30.34,ESE,117,4.2,4.2,85,0.00,,,0.00,TxWx,2013-02-02 05:58:00,